STARLINK-33818, 63502

Orbit data source: Space-Track

STARLINK-33818, 63502 is a payload satellite in LEO that was launched on Mon, 07 Apr 2025 UTC via an FALCON 9 launch vehicle from the Air Force Western Test Range (AFWTR). Payload-class satellites include a variety of spacecraft equipped with specific instruments for various scientific and technological missions. These include communications satellites like Starlink; space stations such as the ISS; scientific satellites like the Hubble; Earth observation satellites from companies like Planet Labs, Umbra, and HawkEye 360; GPS; miniature CubeSats for education and research; and military/defense satellites.

Loading next visibility...
Identifier
63502, 2025-071K
Orbit
LEO
Last TLE update
15 hours ago
Origin
Manufacturer
SpaceX/Seattle
Mission
Operational Commercial Communications
Bus & Motor
STARLINK V2MO, Unknown motor
Mass
575 kg wet, ~530 kg dry
Launch date (UTC)
2025-04-07 (1 month ago)
Launch vehicle
FALCON 9
Launch site
Air Force Western Test Range (AFWTR)
Object type
Payload
Rocket body
Debris
Shape & HBR
Box + 1 Pan, 29 m
Radar Cross Section
41.120 m², Large (>1 m²)

Expand to show TLE details & history

TLE from 15 hours ago
0 STARLINK-33818
1 63502U 25071K   25140.05950764  .00138183  00000-0  32959-2 0  9993
2 63502  53.1626  67.3658 0003540 289.3166  70.7457 15.40582185  7762
Epoch: 2025-05-20T01:25Z
TLE epoch observation values (Epoch: 2025-05-20T01:25:41.46Z)
Latitude
0.00005°
Longitude
167.97988°
Altitude
444.498 km
Speed
7.647 km/s
True Right ascension
04h 29m 27s
True Declination
0° 00' 00"
Sunlit
Object was in daylight at epoch
Visualization orbit readout
Latitude
-48.2538°
Longitude
108.38374°
Altitude
458.011 km
Speed
7.639 km/s
Apparent Right ascension
18h 07m 02s
Apparent Declination
-81° 26' 51"
Sunlit
Object is in daylight
Visualization observer readout
Local Sidereal Time
01:35:57
Azimuth
190.79° SSW
Elevation
-42.663°
Doppler factor
1
Orbital elements
Apogee altitude
447.062 km
Perigee altitude
442.232 km
Semi-major axis
6,822.784 km
Eccentricity
0.00035
Inclination
53.1626°
RAAN
67.3658°
Arg. of periapsis
289.3166°
True anomaly
Unknown
Mean anomaly
70.7457°
Eccentric anomaly
Unknown
Mean motion
3.85124 °/min
Orbital period
93.48 mins
BSTAR
0.0032959
Loading maneuver chart data...
Loading SW <> Apogee altitude chart data...
Loading historical data...
Loading historical data...
Loading historical data...
Loading historical data...
Loading historical data...
Loading historical data...
Loading historical data...

STARLINK-33818 Visibility forecast

Observer location: undefined°, undefined°

Span
Click to sort rows by Start time (UTC) header in descending order
Start Az.
Max El. time (UTC)
Max El. Az.
Max El.
End time (UTC)
End Az.
6 mins2025-05-20 21:51:03.865Z229.404° WSW2025-05-20 21:54:03.865Z45.905° ENE44.315°2025-05-20 21:57:03.865Z49.854° ENE
5 mins2025-05-21 04:24:03.865Z318.457° NNW2025-05-21 04:26:03.865Z35.818° NE43.217°2025-05-21 04:29:03.865Z122.153° SE
|